Weather History for KGUC - March, 2013

Change the Weather History Date:

Wednesday, March 6, 2013

  Actual Average Record
Temperature  
Mean Temperature 16 °F -  
Max Temperature 33 °F 34 °F 46 °F (2001)
Min Temperature -2 °F 10 °F -18 °F (2008)
Degree Days  
Heating Degree Days 50    
Moisture  
Dew Point 6 °F    
Average Humidity 68    
Maximum Humidity 92    
Minimum Humidity 41    
Precipitation  
Precipitation 0.00 in - - ()
Sea Level Pressure  
Sea Level Pressure 30.18 in    
Wind  
Wind Speed 3 mph (ENE)    
Max Wind Speed 8 mph    
Max Gust Speed -    
Visibility 10 miles    
Events      
Averages and records for this station are not official NWS values.
T = Trace of Precipitation, MM = Missing Value Source: NWS Daily Summary

Daily Weather History Graph

Daily Weather History Graph

Search for Another Location

Airport or City:

Trip Planner

Search our weather history database for the weather conditions in past years. The results will help you decide how hot, cold, wet, or windy it might be!

Date:

Astronomy

Mar. 06, 2013 Rise Set
Actual Time 6:32 AM MST 6:06 PM MST
Civil Twilight 6:05 AM MST 6:32 PM MST
Nautical Twilight 5:34 AM MST 7:03 PM MST
Astronomical Twilight 5:04 AM MST 7:34 PM MST
Moon 2:40 AM MST (3/6) 12:54 PM MST (3/6)
Length of Visible Light 12h 27m
Length of Day
11h 34m
Waning Crescent, 29% of the Moon is Illuminated
Mar 6
Waning Crescent
Mar 11
New
Mar 19
First Quarter
Mar 27
Full
Apr 2
Last Quarter

Hourly Weather History & Observations

Time (MST) Temp. Windchill Dew Point Humidity Pressure Visibility Wind Dir Wind Speed Gust Speed Precip Events Conditions
12:15 AM 6.8 °F -3.5 °F 5.0 °F 92% 30.30 in 10.0 mi NE 5.8 mph - N/A   Clear
12:35 AM 5.0 °F -5.6 °F -4.0 °F 66% 30.30 in 10.0 mi ENE 5.8 mph - N/A   Clear
12:55 AM 5.0 °F - 1.4 °F 85% 30.30 in 10.0 mi Calm Calm - N/A   Clear
1:15 AM 5.0 °F - -2.2 °F 72% 30.31 in 10.0 mi Calm Calm - N/A   Clear
1:35 AM 3.2 °F - 1.4 °F 92% 30.31 in 10.0 mi Calm Calm - N/A   Clear
1:55 AM 3.2 °F -6.2 °F -2.2 °F 78% 30.30 in 10.0 mi NE 4.6 mph - N/A   Clear
2:15 AM 3.2 °F -6.2 °F -2.2 °F 78% 30.30 in 10.0 mi ENE 4.6 mph - N/A   Clear
2:35 AM 1.4 °F -8.3 °F -2.2 °F 85% 30.30 in 10.0 mi NE 4.6 mph - N/A   Clear
2:55 AM 3.2 °F -6.2 °F -0.4 °F 85% 30.29 in 10.0 mi ENE 4.6 mph - N/A   Clear
3:15 AM 3.2 °F - -4.0 °F 72% 30.28 in 10.0 mi Calm Calm - N/A   Clear
3:35 AM 1.4 °F - -4.0 °F 78% 30.27 in 10.0 mi Calm Calm - N/A   Clear
3:55 AM 1.4 °F - -2.2 °F 85% 30.27 in 10.0 mi Calm Calm - N/A   Clear
4:15 AM 1.4 °F - -4.0 °F 78% 30.27 in 10.0 mi Calm Calm - N/A   Clear
4:35 AM 1.4 °F - -2.2 °F 85% 30.27 in 10.0 mi Calm Calm - N/A   Clear
4:55 AM 1.4 °F - -5.8 °F 72% 30.27 in 10.0 mi Calm Calm - N/A   Clear
5:15 AM -0.4 °F - -2.2 °F 92% 30.27 in 10.0 mi Calm Calm - N/A   Clear
5:35 AM -0.4 °F -12.0 °F -7.6 °F 72% 30.26 in 10.0 mi ENE 5.8 mph - N/A   Clear
5:55 AM -0.4 °F -8.3 °F -2.2 °F 92% 30.27 in 10.0 mi North 3.5 mph - N/A   Clear
6:15 AM -0.4 °F - -5.8 °F 78% 30.26 in 10.0 mi Calm Calm - N/A   Clear
6:35 AM -2.2 °F - -9.4 °F 71% 30.27 in 10.0 mi Calm Calm - N/A   Clear
6:55 AM -2.2 °F -12.5 °F -5.8 °F 85% 30.27 in 10.0 mi ENE 4.6 mph - N/A   Clear
7:15 AM -2.2 °F -10.4 °F -5.8 °F 85% 30.27 in 10.0 mi ENE 3.5 mph - N/A   Clear
7:35 AM -0.4 °F -8.3 °F -7.6 °F 72% 30.27 in 10.0 mi ENE 3.5 mph - N/A   Clear
7:55 AM 1.4 °F -8.3 °F -0.4 °F 92% 30.27 in 10.0 mi ENE 4.6 mph - N/A   Clear
8:15 AM 1.4 °F -8.3 °F -7.6 °F 66% 30.27 in 10.0 mi ENE 4.6 mph - N/A   Clear
8:35 AM 1.4 °F -8.3 °F -0.4 °F 92% 30.27 in 10.0 mi East 4.6 mph - N/A   Clear
8:55 AM 5.0 °F -4.1 °F -0.4 °F 78% 30.27 in 10.0 mi ENE 4.6 mph - N/A   Clear
9:15 AM 6.8 °F -2.0 °F -0.4 °F 72% 30.26 in 10.0 mi East 4.6 mph - N/A   Clear
9:35 AM 10.4 °F 0.8 °F 6.8 °F 85% 30.25 in 10.0 mi East 5.8 mph - N/A   Clear
9:55 AM 12.2 °F 4.3 °F 1.4 °F 62% 30.25 in 10.0 mi East 4.6 mph - N/A   Clear
10:15 AM 12.2 °F 6.1 °F 5.0 °F 73% 30.24 in 10.0 mi East 3.5 mph - N/A   Clear
10:35 AM 15.8 °F 10.2 °F 6.8 °F 68% 30.23 in 10.0 mi ESE 3.5 mph - N/A   Clear
10:55 AM 15.8 °F - 6.8 °F 68% 30.22 in 10.0 mi Calm Calm - N/A   Clear
11:15 AM 17.6 °F 12.3 °F 10.4 °F 73% 30.21 in 10.0 mi ESE 3.5 mph - N/A   Clear
11:35 AM 19.4 °F - 8.6 °F 63% 30.19 in 10.0 mi Calm Calm - N/A   Clear
11:55 AM 21.2 °F - 8.6 °F 58% 30.19 in 10.0 mi Calm Calm - N/A   Clear
12:15 PM 21.2 °F - 8.6 °F 58% 30.17 in 10.0 mi Calm Calm - N/A   Clear
12:35 PM 23.0 °F - 8.6 °F 54% 30.15 in 10.0 mi Calm Calm - N/A   Clear
12:55 PM 24.8 °F - 12.2 °F 59% 30.14 in 10.0 mi Calm Calm - N/A   Clear
1:15 PM 24.8 °F 20.5 °F 10.4 °F 54% 30.14 in 10.0 mi East 3.5 mph - N/A   Clear
1:35 PM 26.6 °F - 8.6 °F 47% 30.12 in 10.0 mi Calm Calm - N/A   Clear
1:55 PM 28.4 °F 24.6 °F 12.2 °F 51% 30.11 in 10.0 mi East 3.5 mph - N/A   Clear
2:15 PM 28.4 °F 20.4 °F 10.4 °F 47% 30.09 in 10.0 mi East 8.1 mph - N/A   Clear
2:35 PM 30.2 °F 24.3 °F 10.4 °F 44% 30.09 in 10.0 mi ENE 5.8 mph - N/A   Clear
2:55 PM 30.2 °F - 12.2 °F 47% 30.09 in 10.0 mi Calm Calm - N/A   Clear
3:15 PM 30.2 °F 25.4 °F 15.8 °F 55% 30.08 in 10.0 mi East 4.6 mph - N/A   Clear
3:35 PM 30.2 °F 24.3 °F 14.0 °F 51% 30.08 in 10.0 mi East 5.8 mph - N/A   Clear
3:55 PM 32.0 °F 28.7 °F 14.0 °F 48% 30.07 in 10.0 mi ESE 3.5 mph - N/A   Clear
4:15 PM 33.8 °F 30.8 °F 12.2 °F 41% 30.08 in 10.0 mi NE 3.5 mph - N/A   Clear
4:35 PM 32.0 °F 26.4 °F 17.6 °F 55% 30.07 in 10.0 mi ENE 5.8 mph - N/A   Clear
4:55 PM 30.2 °F 25.4 °F 15.8 °F 55% 30.07 in 10.0 mi East 4.6 mph - N/A   Clear
5:15 PM 32.0 °F 27.5 °F 15.8 °F 51% 30.06 in 10.0 mi ENE 4.6 mph - N/A   Clear
5:35 PM 33.8 °F 30.8 °F 15.8 °F 48% 30.05 in 10.0 mi North 3.5 mph - N/A   Clear
5:55 PM 32.0 °F 26.4 °F 12.2 °F 44% 30.05 in 10.0 mi North 5.8 mph - N/A   Clear
6:15 PM 30.2 °F 26.7 °F 12.2 °F 47% 30.06 in 10.0 mi NNW 3.5 mph - N/A   Clear
6:35 PM 28.4 °F 23.3 °F 14.0 °F 55% 30.07 in 10.0 mi NNW 4.6 mph - N/A   Clear
6:55 PM 26.6 °F 20.0 °F 14.0 °F 59% 30.07 in 10.0 mi NNE 5.8 mph - N/A   Clear
7:35 PM 26.6 °F 19.1 °F 12.2 °F 55% 30.08 in 10.0 mi North 6.9 mph - N/A   Clear
7:55 PM 24.8 °F 17.9 °F 14.0 °F 64% 30.08 in 10.0 mi North 5.8 mph - N/A   Clear
8:35 PM 23.0 °F - 12.2 °F 63% 30.09 in 10.0 mi Calm Calm - N/A   Clear
8:55 PM 23.0 °F - 10.4 °F 59% 30.09 in 10.0 mi Calm Calm - N/A   Clear
9:15 PM 21.2 °F - 10.4 °F 63% 30.09 in 10.0 mi Calm Calm - N/A   Clear
9:35 PM 19.4 °F - 12.2 °F 74% 30.08 in 10.0 mi Calm Calm - N/A   Clear
9:55 PM 19.4 °F - 10.4 °F 68% 30.09 in 10.0 mi Calm Calm - N/A   Clear
10:15 PM 19.4 °F - 14.0 °F 80% 30.09 in 10.0 mi Calm Calm - N/A   Clear
10:35 PM 19.4 °F - 12.2 °F 74% 30.09 in 10.0 mi Calm Calm - N/A   Clear
11:15 PM 17.6 °F 12.3 °F 10.4 °F 73% 30.09 in 10.0 mi ENE 3.5 mph - N/A   Clear
11:35 PM 17.6 °F - 12.2 °F 79% 30.09 in 10.0 mi Calm Calm - N/A   Clear
11:55 PM 17.6 °F - 12.2 °F 79% 30.10 in 10.0 mi Calm Calm - N/A   Clear